Time,TemperatureF,DewpointF,PressureIn,WindDirection,WindDirectionDegrees,WindSpeedMPH,WindSpeedGustMPH,Humidity,HourlyPrecipIn,Conditions,Clouds,dailyrainin,SoftwareType,DateUTC
2013-10-09 04:33:00,52.4,47.7,30.00,SSW,194,2.0,2.0,84,0.00,,CLR,0.00,VWS V14.01,2013-10-09 09:33:00,
2013-10-09 04:38:00,51.8,47.4,30.00,SE,146,4.0,7.0,85,0.00,,CLR,0.00,VWS V14.01,2013-10-09 09:38:00,
2013-10-09 04:43:00,51.6,47.6,30.00,SE,145,3.0,7.0,86,0.00,,CLR,0.00,VWS V14.01,2013-10-09 09:43:00,
2013-10-09 04:48:00,51.4,47.4,30.00,SSE,155,5.0,7.0,86,0.00,,CLR,0.00,VWS V14.01,2013-10-09 09:48:00,
2013-10-09 04:53:00,50.9,46.9,30.00,SE,128,5.0,7.0,86,0.00,,CLR,0.00,VWS V14.01,2013-10-09 09:53:00,
2013-10-09 04:58:00,50.6,46.9,30.00,SE,128,4.0,7.0,87,0.00,,CLR,0.00,VWS V14.01,2013-10-09 09:58:00,
2013-10-09 05:00:00,50.4,46.7,30.00,SE,130,3.0,7.0,87,0.00,,CLR,0.00,VWS V14.01,2013-10-09 10:00:00,
2013-10-09 05:03:00,50.2,46.5,30.00,SSE,155,3.0,4.0,87,0.00,,CLR,0.00,VWS V14.01,2013-10-09 10:03:00,
2013-10-09 05:08:00,50.0,46.6,30.00,SE,136,3.0,5.0,88,0.00,,CLR,0.00,VWS V14.01,2013-10-09 10:08:00,
2013-10-09 05:13:00,49.7,46.3,30.01,SE,142,2.0,5.0,88,0.00,,CLR,0.00,VWS V14.01,2013-10-09 10:13:00,
2013-10-09 05:18:00,49.2,46.1,30.01,SE,146,2.0,5.0,89,0.00,,CLR,0.00,VWS V14.01,2013-10-09 10:18:00,
2013-10-09 05:23:00,48.7,45.6,30.01,SE,132,2.0,5.0,89,0.00,,CLR,0.00,VWS V14.01,2013-10-09 10:23:00,
2013-10-09 05:28:00,48.5,45.7,30.00,SE,138,4.0,6.0,90,0.00,,CLR,0.00,VWS V14.01,2013-10-09 10:28:00,
2013-10-09 05:30:00,48.4,45.6,30.01,SE,145,2.0,6.0,90,0.00,,CLR,0.00,VWS V14.01,2013-10-09 10:30:00,
2013-10-09 05:33:00,48.3,45.5,30.01,SE,130,3.0,5.0,90,0.00,,CLR,0.00,VWS V14.01,2013-10-09 10:33:00,
2013-10-09 05:38:00,48.3,45.8,30.01,SSE,153,4.0,5.0,91,0.00,,CLR,0.00,VWS V14.01,2013-10-09 10:38:00,
2013-10-09 05:43:00,48.3,45.8,30.01,SE,146,4.0,6.0,91,0.00,,CLR,0.00,VWS V14.01,2013-10-09 10:43:00,
2013-10-09 05:48:00,48.2,45.7,30.00,SE,134,5.0,7.0,91,0.00,,CLR,0.00,VWS V14.01,2013-10-09 10:48:00,
2013-10-09 05:53:00,48.3,45.8,30.00,SE,139,5.0,8.0,91,0.00,,CLR,0.00,VWS V14.01,2013-10-09 10:53:00,
2013-10-09 05:58:00,48.4,45.9,30.00,SE,125,5.0,8.0,91,0.00,,CLR,0.00,VWS V14.01,2013-10-09 10:58:00,
2013-10-09 06:00:00,48.4,45.9,30.00,SSE,165,6.0,8.0,91,0.00,,CLR,0.00,VWS V14.01,2013-10-09 11:00:00,
2013-10-09 06:03:00,48.5,46.0,30.00,SSE,159,4.0,7.0,91,0.00,,CLR,0.00,VWS V14.01,2013-10-09 11:03:00,
2013-10-09 06:08:00,48.5,46.0,30.00,SE,143,5.0,8.0,91,0.00,,CLR,0.00,VWS V14.01,2013-10-09 11:08:00,
2013-10-09 06:13:00,48.4,45.9,30.00,SSE,149,5.0,9.0,91,0.00,,CLR,0.00,VWS V14.01,2013-10-09 11:13:00,
2013-10-09 06:18:00,48.2,45.7,30.00,ESE,122,5.0,9.0,91,0.00,,CLR,0.00,VWS V14.01,2013-10-09 11:18:00,
2013-10-09 06:23:00,47.9,45.4,30.00,SSE,156,5.0,9.0,91,0.00,,CLR,0.00,VWS V14.01,2013-10-09 11:23:00,
2013-10-09 06:28:00,47.9,45.7,30.00,SE,141,3.0,9.0,92,0.00,,CLR,0.00,VWS V14.01,2013-10-09 11:28:00,
2013-10-09 06:30:00,47.8,45.6,30.00,SE,142,2.0,9.0,92,0.00,,CLR,0.00,VWS V14.01,2013-10-09 11:30:00,
2013-10-09 06:33:00,47.8,45.6,30.00,ESE,121,4.0,5.0,92,0.00,,CLR,0.00,VWS V14.01,2013-10-09 11:33:00,
2013-10-09 06:38:00,47.7,45.5,30.00,SE,139,5.0,7.0,92,0.00,,CLR,0.00,VWS V14.01,2013-10-09 11:38:00,
2013-10-09 06:43:00,47.5,45.3,30.01,SE,134,5.0,7.0,92,0.00,,CLR,0.00,VWS V14.01,2013-10-09 11:43:00,
2013-10-09 06:48:00,47.3,45.1,30.01,SE,142,4.0,7.0,92,0.00,,CLR,0.00,VWS V14.01,2013-10-09 11:48:00,
2013-10-09 06:53:00,47.2,45.0,30.00,SE,141,3.0,7.0,92,0.00,,CLR,0.00,VWS V14.01,2013-10-09 11:53:00,
2013-10-09 06:58:00,47.1,45.2,30.00,SE,125,4.0,7.0,93,0.00,,CLR,0.00,VWS V14.01,2013-10-09 11:58:00,
2013-10-09 07:00:00,47.1,45.2,30.00,SE,139,3.0,7.0,93,0.00,,CLR,0.00,VWS V14.01,2013-10-09 12:00:00,
2013-10-09 07:03:00,47.0,45.1,30.00,SE,129,3.0,5.0,93,0.00,,CLR,0.00,VWS V14.01,2013-10-09 12:03:00,
2013-10-09 07:04:00,47.0,45.1,30.00,SE,134,4.0,5.0,93,0.00,,CLR,0.00,VWS V14.01,2013-10-09 12:04:00,
2013-10-09 07:09:00,46.9,45.0,30.01,SE,129,5.0,6.0,93,0.00,,CLR,0.00,VWS V14.01,2013-10-09 12:09:00,
2013-10-09 07:14:00,47.0,45.4,30.01,SE,134,2.0,6.0,94,0.00,,CLR,0.00,VWS V14.01,2013-10-09 12:14:00,
2013-10-09 07:19:00,46.9,45.3,30.01,SE,143,2.0,6.0,94,0.00,,CLR,0.00,VWS V14.01,2013-10-09 12:19:00,
2013-10-09 07:24:00,46.8,44.9,30.01,SE,142,1.0,6.0,93,0.00,,CLR,0.00,VWS V14.01,2013-10-09 12:24:00,
2013-10-09 07:29:00,46.7,44.8,30.01,SSE,160,4.0,6.0,93,0.00,,CLR,0.00,VWS V14.01,2013-10-09 12:29:00,
2013-10-09 07:30:00,46.7,44.8,30.01,SSE,159,1.0,6.0,93,0.00,,CLR,0.00,VWS V14.01,2013-10-09 12:30:00,
2013-10-09 07:34:00,46.7,45.1,30.01,SSE,149,3.0,5.0,94,0.00,,CLR,0.00,VWS V14.01,2013-10-09 12:34:00,
2013-10-09 07:39:00,46.9,45.3,30.01,SSE,158,6.0,6.0,94,0.00,,CLR,0.00,VWS V14.01,2013-10-09 12:39:00,
2013-10-09 07:44:00,47.2,45.6,30.01,SE,128,4.0,7.0,94,0.00,,CLR,0.00,VWS V14.01,2013-10-09 12:44:00,
2013-10-09 07:49:00,47.5,45.6,30.02,SE,134,4.0,8.0,93,0.00,,CLR,0.00,VWS V14.01,2013-10-09 12:49:00,
2013-10-09 07:54:00,47.8,45.9,30.02,SSE,148,4.0,9.0,93,0.00,,CLR,0.00,VWS V14.01,2013-10-09 12:54:00,
2013-10-09 07:59:00,48.0,46.1,30.02,SSE,156,3.0,9.0,93,0.00,,CLR,0.00,VWS V14.01,2013-10-09 12:59:00,
2013-10-09 08:00:00,48.1,46.2,30.02,SSE,148,3.0,9.0,93,0.00,,CLR,0.00,VWS V14.01,2013-10-09 13:00:00,
2013-10-09 08:04:00,48.3,46.4,30.02,SSE,163,4.0,6.0,93,0.00,,CLR,0.00,VWS V14.01,2013-10-09 13:04:00,
2013-10-09 08:09:00,48.8,46.6,30.02,SSE,157,5.0,8.0,92,0.00,,CLR,0.00,VWS V14.01,2013-10-09 13:09:00,
2013-10-09 08:14:00,49.3,46.8,30.02,SSE,158,5.0,9.0,91,0.00,,CLR,0.00,VWS V14.01,2013-10-09 13:14:00,
2013-10-09 08:19:00,49.6,47.1,30.02,ESE,121,4.0,9.0,91,0.00,,CLR,0.00,VWS V14.01,2013-10-09 13:19:00,
2013-10-09 08:24:00,49.7,47.2,30.02,SE,129,3.0,9.0,91,0.00,,CLR,0.00,VWS V14.01,2013-10-09 13:24:00,
2013-10-09 08:29:00,50.0,47.5,30.03,SE,141,4.0,9.0,91,0.00,,CLR,0.00,VWS V14.01,2013-10-09 13:29:00,
2013-10-09 08:30:00,50.2,47.7,30.02,SE,135,4.0,9.0,91,0.00,,CLR,0.00,VWS V14.01,2013-10-09 13:30:00,
2013-10-09 08:34:00,50.4,47.6,30.02,SSE,150,4.0,9.0,90,0.00,,CLR,0.00,VWS V14.01,2013-10-09 13:34:00,
2013-10-09 08:38:00,50.8,48.0,30.02,SSE,148,5.0,9.0,90,0.00,,CLR,0.00,VWS V14.01,2013-10-09 13:38:00,
2013-10-09 08:43:00,51.1,48.3,30.02,SSE,148,6.0,10.0,90,0.00,,CLR,0.00,VWS V14.01,2013-10-09 13:43:00,
2013-10-09 08:48:00,51.7,48.6,30.02,SE,141,5.0,10.0,89,0.00,,CLR,0.00,VWS V14.01,2013-10-09 13:48:00,
2013-10-09 08:53:00,52.3,48.9,30.03,SSE,163,6.0,10.0,88,0.00,,CLR,0.00,VWS V14.01,2013-10-09 13:53:00,
2013-10-09 08:58:00,53.2,49.4,30.03,SSE,161,7.0,10.0,87,0.00,,CLR,0.00,VWS V14.01,2013-10-09 13:58:00,
2013-10-09 09:00:00,53.4,49.6,30.03,South,175,4.0,10.0,87,0.00,,CLR,0.00,VWS V14.01,2013-10-09 14:00:00,
2013-10-09 09:03:00,53.8,49.7,30.03,SE,132,4.0,10.0,86,0.00,,CLR,0.00,VWS V14.01,2013-10-09 14:03:00,
2013-10-09 09:08:00,54.4,50.0,30.03,SSW,211,5.0,10.0,85,0.00,,CLR,0.00,VWS V14.01,2013-10-09 14:08:00,
2013-10-09 09:13:00,54.9,50.2,30.03,SSE,149,5.0,10.0,84,0.00,,CLR,0.00,VWS V14.01,2013-10-09 14:13:00,
2013-10-09 09:18:00,55.1,50.0,30.03,South,186,6.0,11.0,83,0.00,,CLR,0.00,VWS V14.01,2013-10-09 14:18:00,
2013-10-09 09:23:00,55.4,50.3,30.03,SE,145,4.0,11.0,83,0.00,,CLR,0.00,VWS V14.01,2013-10-09 14:23:00,
2013-10-09 09:28:00,55.8,50.7,30.04,SSE,153,5.0,11.0,83,0.00,,CLR,0.00,VWS V14.01,2013-10-09 14:28:00,
2013-10-09 09:30:00,56.1,51.0,30.04,SSE,161,4.0,11.0,83,0.00,,CLR,0.00,VWS V14.01,2013-10-09 14:30:00,
2013-10-09 09:33:00,56.5,50.8,30.04,SSE,159,8.0,10.0,81,0.00,,CLR,0.00,VWS V14.01,2013-10-09 14:33:00,
2013-10-09 09:38:00,57.0,51.2,30.04,SSE,148,7.0,11.0,81,0.00,,CLR,0.00,VWS V14.01,2013-10-09 14:38:00,
2013-10-09 09:43:00,57.3,51.2,30.04,SE,136,6.0,11.0,80,0.00,,CLR,0.00,VWS V14.01,2013-10-09 14:43:00,
2013-10-09 09:48:00,57.9,51.8,30.04,SE,136,6.0,12.0,80,0.00,,CLR,0.00,VWS V14.01,2013-10-09 14:48:00,
2013-10-09 09:53:00,58.8,52.0,30.04,SSE,160,7.0,12.0,78,0.00,,CLR,0.00,VWS V14.01,2013-10-09 14:53:00,
2013-10-09 09:58:00,59.4,52.2,30.04,South,169,4.0,12.0,77,0.00,,CLR,0.00,VWS V14.01,2013-10-09 14:58:00,
2013-10-09 10:00:00,59.6,52.4,30.04,SSE,163,7.0,12.0,77,0.00,,CLR,0.00,VWS V14.01,2013-10-09 15:00:00,
2013-10-09 10:03:00,59.9,52.7,30.04,South,188,6.0,11.0,77,0.00,,CLR,0.00,VWS V14.01,2013-10-09 15:03:00,
2013-10-09 10:08:00,60.8,52.1,30.04,South,183,4.0,13.0,73,0.00,,CLR,0.00,VWS V14.01,2013-10-09 15:08:00,
2013-10-09 10:13:00,61.4,52.7,30.04,SE,145,4.0,13.0,73,0.00,,CLR,0.00,VWS V14.01,2013-10-09 15:13:00,
2013-10-09 10:18:00,62.1,52.2,30.04,SSE,158,5.0,13.0,70,0.00,,CLR,0.00,VWS V14.01,2013-10-09 15:18:00,
2013-10-09 10:23:00,62.6,52.3,30.04,SE,141,13.0,15.0,69,0.00,,CLR,0.00,VWS V14.01,2013-10-09 15:23:00,
2013-10-09 10:28:00,63.0,51.9,30.04,SE,131,6.0,15.0,67,0.00,,CLR,0.00,VWS V14.01,2013-10-09 15:28:00,
2013-10-09 10:30:00,63.2,52.1,30.04,SW,215,7.0,15.0,67,0.00,,CLR,0.00,VWS V14.01,2013-10-09 15:30:00,
2013-10-09 10:33:00,63.4,52.3,30.04,SSW,203,7.0,15.0,67,0.00,,CLR,0.00,VWS V14.01,2013-10-09 15:33:00,
2013-10-09 10:38:00,64.1,52.5,30.04,SE,142,8.0,15.0,66,0.00,,CLR,0.00,VWS V14.01,2013-10-09 15:38:00,
2013-10-09 10:43:00,64.7,52.7,30.04,South,170,7.0,16.0,65,0.00,,CLR,0.00,VWS V14.01,2013-10-09 15:43:00,
2013-10-09 10:48:00,65.2,52.3,30.05,SSW,201,9.0,16.0,63,0.00,,CLR,0.00,VWS V14.01,2013-10-09 15:48:00,
2013-10-09 10:53:00,65.4,52.1,30.05,SSE,163,5.0,16.0,62,0.00,,CLR,0.00,VWS V14.01,2013-10-09 15:53:00,
2013-10-09 10:58:00,65.7,52.3,30.05,SSE,151,6.0,16.0,62,0.00,,CLR,0.00,VWS V14.01,2013-10-09 15:58:00,
2013-10-09 11:00:00,65.9,52.1,30.05,SSE,166,10.0,16.0,61,0.00,,CLR,0.00,VWS V14.01,2013-10-09 16:00:00,
2013-10-09 11:03:00,65.9,52.5,30.05,SSW,209,6.0,17.0,62,0.00,,CLR,0.00,VWS V14.01,2013-10-09 16:03:00,
2013-10-09 11:08:00,66.2,51.9,30.05,SSE,168,9.0,18.0,60,0.00,,CLR,0.00,VWS V14.01,2013-10-09 16:08:00,
2013-10-09 11:13:00,66.1,51.8,30.05,SW,224,8.0,18.0,60,0.00,,CLR,0.00,VWS V14.01,2013-10-09 16:13:00,
2013-10-09 11:18:00,66.4,52.1,30.05,SE,137,10.0,18.0,60,0.00,,CLR,0.00,VWS V14.01,2013-10-09 16:18:00,
2013-10-09 11:23:00,66.8,52.0,30.05,South,179,15.0,18.0,59,0.00,,CLR,0.00,VWS V14.01,2013-10-09 16:23:00,
2013-10-09 11:28:00,66.9,52.1,30.05,South,187,4.0,18.0,59,0.00,,CLR,0.00,VWS V14.01,2013-10-09 16:28:00,
2013-10-09 11:30:00,67.1,52.3,30.05,SSE,149,9.0,18.0,59,0.00,,CLR,0.00,VWS V14.01,2013-10-09 16:30:00,
2013-10-09 11:33:00,67.3,52.0,30.05,SW,215,6.0,14.0,58,0.00,,CLR,0.00,VWS V14.01,2013-10-09 16:33:00,
2013-10-09 11:38:00,67.6,51.8,30.05,SW,217,13.0,17.0,57,0.00,,CLR,0.00,VWS V14.01,2013-10-09 16:38:00,
2013-10-09 11:43:00,68.0,52.2,30.05,South,183,11.0,17.0,57,0.00,,CLR,0.00,VWS V14.01,2013-10-09 16:43:00,
2013-10-09 11:48:00,68.1,52.3,30.05,SSE,159,9.0,17.0,57,0.00,,CLR,0.00,VWS V14.01,2013-10-09 16:48:00,
2013-10-09 11:53:00,68.5,51.7,30.05,SSE,148,10.0,17.0,55,0.00,,CLR,0.00,VWS V14.01,2013-10-09 16:53:00,
2013-10-09 11:58:00,68.4,51.6,30.05,SSW,199,8.0,17.0,55,0.00,,CLR,0.00,VWS V14.01,2013-10-09 16:58:00,
2013-10-09 12:00:00,68.4,51.6,30.05,SSE,149,11.0,17.0,55,0.00,,CLR,0.00,VWS V14.01,2013-10-09 17:00:00,
2013-10-09 12:03:00,68.6,51.8,30.05,SE,146,8.0,14.0,55,0.00,,CLR,0.00,VWS V14.01,2013-10-09 17:03:00,
2013-10-09 12:08:00,68.9,52.1,30.04,SE,134,11.0,14.0,55,0.00,,CLR,0.00,VWS V14.01,2013-10-09 17:08:00,
2013-10-09 12:13:00,69.2,51.9,30.04,South,181,8.0,15.0,54,0.00,,CLR,0.00,VWS V14.01,2013-10-09 17:13:00,
2013-10-09 12:18:00,69.2,51.9,30.04,SE,134,18.0,19.0,54,0.00,,CLR,0.00,VWS V14.01,2013-10-09 17:18:00,
2013-10-09 12:23:00,68.7,50.9,30.04,SE,139,10.0,22.0,53,0.00,,CLR,0.00,VWS V14.01,2013-10-09 17:23:00,
2013-10-09 12:28:00,68.5,51.2,30.04,SE,146,9.0,22.0,54,0.00,,CLR,0.00,VWS V14.01,2013-10-09 17:28:00,
2013-10-09 12:30:00,68.4,51.1,30.04,South,188,10.0,22.0,54,0.00,,CLR,0.00,VWS V14.01,2013-10-09 17:30:00,
2013-10-09 12:33:00,68.5,51.2,30.04,SE,141,12.0,16.0,54,0.00,,CLR,0.00,VWS V14.01,2013-10-09 17:33:00,
2013-10-09 12:38:00,69.0,51.7,30.03,SE,146,9.0,16.0,54,0.00,,CLR,0.00,VWS V14.01,2013-10-09 17:38:00,
2013-10-09 12:43:00,69.6,51.7,30.03,South,191,14.0,16.0,53,0.00,,CLR,0.00,VWS V14.01,2013-10-09 17:43:00,
2013-10-09 12:48:00,69.6,50.2,30.02,SW,233,6.0,16.0,50,0.00,,CLR,0.00,VWS V14.01,2013-10-09 17:48:00,
2013-10-09 12:53:00,69.7,50.8,30.03,SSE,148,15.0,16.0,51,0.00,,CLR,0.00,VWS V14.01,2013-10-09 17:53:00,
2013-10-09 12:58:00,69.9,51.0,30.02,SSE,162,4.0,19.0,51,0.00,,CLR,0.00,VWS V14.01,2013-10-09 17:58:00,
2013-10-09 13:00:00,70.1,51.2,30.02,SSE,155,7.0,19.0,51,0.00,,CLR,0.00,VWS V14.01,2013-10-09 18:00:00,
2013-10-09 13:03:00,70.3,50.3,30.02,SSE,156,13.0,15.0,49,0.00,,CLR,0.00,VWS V14.01,2013-10-09 18:03:00,
2013-10-09 13:08:00,70.8,51.8,30.02,SE,134,13.0,15.0,51,0.00,,CLR,0.00,VWS V14.01,2013-10-09 18:08:00,
2013-10-09 13:13:00,70.9,50.8,30.02,SW,226,20.0,20.0,49,0.00,,CLR,0.00,VWS V14.01,2013-10-09 18:13:00,
2013-10-09 13:18:00,70.9,51.3,30.02,SE,131,18.0,20.0,50,0.00,,CLR,0.00,VWS V14.01,2013-10-09 18:18:00,
2013-10-09 13:23:00,71.1,50.4,30.02,SSW,201,8.0,21.0,48,0.00,,CLR,0.00,VWS V14.01,2013-10-09 18:23:00,
2013-10-09 13:28:00,71.1,50.4,30.02,SSE,153,8.0,21.0,48,0.00,,CLR,0.00,VWS V14.01,2013-10-09 18:28:00,
2013-10-09 13:30:00,71.3,52.3,30.02,SE,133,12.0,21.0,51,0.00,,CLR,0.00,VWS V14.01,2013-10-09 18:30:00,
2013-10-09 13:33:00,71.4,50.7,30.01,SSE,160,11.0,18.0,48,0.00,,CLR,0.00,VWS V14.01,2013-10-09 18:33:00,
2013-10-09 13:38:00,71.9,51.2,30.01,SSE,153,16.0,19.0,48,0.00,,CLR,0.00,VWS V14.01,2013-10-09 18:38:00,
2013-10-09 13:43:00,71.9,51.7,30.01,ESE,122,8.0,19.0,49,0.00,,CLR,0.00,VWS V14.01,2013-10-09 18:43:00,
2013-10-09 13:48:00,72.1,51.3,30.01,SSE,152,9.0,19.0,48,0.00,,CLR,0.00,VWS V14.01,2013-10-09 18:48:00,
2013-10-09 13:53:00,72.1,50.2,30.01,SSW,212,6.0,19.0,46,0.00,,CLR,0.00,VWS V14.01,2013-10-09 18:53:00,
2013-10-09 13:58:00,72.2,50.9,30.00,SE,145,11.0,21.0,47,0.00,,CLR,0.00,VWS V14.01,2013-10-09 18:58:00,
2013-10-09 14:00:00,72.2,49.1,30.00,SSE,148,17.0,25.0,44,0.00,,CLR,0.00,VWS V14.01,2013-10-09 19:00:00,
2013-10-09 14:03:00,72.1,49.6,30.01,SSE,153,12.0,20.0,45,0.00,,CLR,0.00,VWS V14.01,2013-10-09 19:03:00,
2013-10-09 14:08:00,72.2,50.9,30.00,SE,145,12.0,20.0,47,0.00,,CLR,0.00,VWS V14.01,2013-10-09 19:08:00,
2013-10-09 14:13:00,72.5,50.0,30.00,SSE,150,16.0,20.0,45,0.00,,CLR,0.00,VWS V14.01,2013-10-09 19:13:00,
2013-10-09 14:18:00,72.5,49.4,30.00,SSE,165,10.0,20.0,44,0.00,,CLR,0.00,VWS V14.01,2013-10-09 19:18:00,
2013-10-09 14:23:00,72.5,49.4,30.00,SE,146,12.0,20.0,44,0.00,,CLR,0.00,VWS V14.01,2013-10-09 19:23:00,
2013-10-09 14:28:00,72.7,48.3,30.00,South,181,11.0,20.0,42,0.00,,CLR,0.00,VWS V14.01,2013-10-09 19:28:00,
2013-10-09 14:30:00,72.8,49.6,30.00,SE,141,12.0,20.0,44,0.00,,CLR,0.00,VWS V14.01,2013-10-09 19:30:00,
2013-10-09 14:33:00,72.8,48.4,30.00,SE,134,7.0,16.0,42,0.00,,CLR,0.00,VWS V14.01,2013-10-09 19:33:00,
2013-10-09 14:38:00,73.2,48.1,30.00,SSE,155,9.0,19.0,41,0.00,,CLR,0.00,VWS V14.01,2013-10-09 19:38:00,
2013-10-09 14:43:00,73.5,47.7,30.00,SSE,165,9.0,19.0,40,0.00,,CLR,0.00,VWS V14.01,2013-10-09 19:43:00,
2013-10-09 14:48:00,73.7,47.9,30.00,SE,139,11.0,19.0,40,0.00,,CLR,0.00,VWS V14.01,2013-10-09 19:48:00,
2013-10-09 14:53:00,73.6,47.8,30.00,SSE,148,12.0,19.0,40,0.00,,CLR,0.00,VWS V14.01,2013-10-09 19:53:00,
2013-10-09 14:58:00,73.7,48.6,29.99,SE,143,12.0,19.0,41,0.00,,CLR,0.00,VWS V14.01,2013-10-09 19:58:00,
2013-10-09 15:00:00,73.6,48.5,29.99,ESE,123,17.0,22.0,41,0.00,,CLR,0.00,VWS V14.01,2013-10-09 20:00:00,
2013-10-09 15:03:00,73.5,48.4,29.99,SE,141,10.0,17.0,41,0.00,,CLR,0.00,VWS V14.01,2013-10-09 20:03:00,
2013-10-09 15:08:00,73.7,48.6,29.99,South,186,9.0,18.0,41,0.00,,CLR,0.00,VWS V14.01,2013-10-09 20:08:00,
2013-10-09 15:13:00,73.9,48.7,29.99,South,173,8.0,18.0,41,0.00,,CLR,0.00,VWS V14.01,2013-10-09 20:13:00,
2013-10-09 15:18:00,74.0,48.2,29.99,South,178,11.0,18.0,40,0.00,,CLR,0.00,VWS V14.01,2013-10-09 20:18:00,
2013-10-09 15:23:00,73.8,48.0,29.99,SSE,147,8.0,18.0,40,0.00,,CLR,0.00,VWS V14.01,2013-10-09 20:23:00,
2013-10-09 15:28:00,74.1,48.9,29.99,SSE,155,12.0,18.0,41,0.00,,CLR,0.00,VWS V14.01,2013-10-09 20:28:00,
2013-10-09 15:30:00,74.1,48.3,29.99,SE,131,12.0,18.0,40,0.00,,CLR,0.00,VWS V14.01,2013-10-09 20:30:00,
2013-10-09 15:33:00,74.1,48.9,29.99,SE,145,14.0,18.0,41,0.00,,CLR,0.00,VWS V14.01,2013-10-09 20:33:00,
2013-10-09 15:38:00,74.0,48.8,29.99,SSE,158,9.0,20.0,41,0.00,,CLR,0.00,VWS V14.01,2013-10-09 20:38:00,
2013-10-09 15:43:00,74.0,48.2,29.98,South,172,11.0,20.0,40,0.00,,CLR,0.00,VWS V14.01,2013-10-09 20:43:00,
2013-10-09 15:48:00,74.1,47.6,29.98,SSE,150,11.0,20.0,39,0.00,,CLR,0.00,VWS V14.01,2013-10-09 20:48:00,
2013-10-09 15:53:00,74.1,48.3,29.99,ESE,123,11.0,20.0,40,0.00,,CLR,0.00,VWS V14.01,2013-10-09 20:53:00,
2013-10-09 15:58:00,74.4,48.5,29.98,SE,145,9.0,20.0,40,0.00,,CLR,0.00,VWS V14.01,2013-10-09 20:58:00,
2013-10-09 16:00:00,74.3,47.8,29.98,SE,141,7.0,20.0,39,0.00,,CLR,0.00,VWS V14.01,2013-10-09 21:00:00,
2013-10-09 16:03:00,74.5,47.9,29.98,South,169,12.0,16.0,39,0.00,,CLR,0.00,VWS V14.01,2013-10-09 21:03:00,
2013-10-09 16:08:00,74.3,47.1,29.98,South,170,10.0,17.0,38,0.00,,CLR,0.00,VWS V14.01,2013-10-09 21:08:00,
2013-10-09 16:13:00,74.3,47.8,29.98,SSE,153,10.0,18.0,39,0.00,,CLR,0.00,VWS V14.01,2013-10-09 21:13:00,
2013-10-09 16:18:00,74.1,47.6,29.98,SSE,150,7.0,18.0,39,0.00,,CLR,0.00,VWS V14.01,2013-10-09 21:18:00,
2013-10-09 16:23:00,74.2,47.7,29.98,SSW,203,7.0,18.0,39,0.00,,CLR,0.00,VWS V14.01,2013-10-09 21:23:00,
2013-10-09 16:28:00,74.2,47.7,29.98,ESE,119,11.0,18.0,39,0.00,,CLR,0.00,VWS V14.01,2013-10-09 21:28:00,
2013-10-09 16:30:00,74.1,46.9,29.98,SSE,153,10.0,18.0,38,0.00,,CLR,0.00,VWS V14.01,2013-10-09 21:30:00,
2013-10-09 16:33:00,74.1,46.9,29.98,SSE,156,10.0,17.0,38,0.00,,CLR,0.00,VWS V14.01,2013-10-09 21:33:00,
2013-10-09 16:38:00,74.1,46.9,29.98,SE,145,14.0,17.0,38,0.00,,CLR,0.00,VWS V14.01,2013-10-09 21:38:00,
2013-10-09 16:43:00,74.0,46.1,29.98,SE,145,8.0,18.0,37,0.00,,CLR,0.00,VWS V14.01,2013-10-09 21:43:00,
2013-10-09 16:48:00,73.9,46.0,29.98,SSE,153,12.0,18.0,37,0.00,,CLR,0.00,VWS V14.01,2013-10-09 21:48:00,
2013-10-09 16:53:00,73.8,45.9,29.98,SSE,147,8.0,18.0,37,0.00,,CLR,0.00,VWS V14.01,2013-10-09 21:53:00,
2013-10-09 16:58:00,73.9,46.7,29.98,SSE,148,9.0,18.0,38,0.00,,CLR,0.00,VWS V14.01,2013-10-09 21:58:00,
2013-10-09 17:00:00,74.0,47.5,29.98,SE,139,9.0,18.0,39,0.00,,CLR,0.00,VWS V14.01,2013-10-09 22:00:00,
2013-10-09 17:03:00,74.0,47.5,29.98,South,174,4.0,11.0,39,0.00,,CLR,0.00,VWS V14.01,2013-10-09 22:03:00,
2013-10-09 17:08:00,74.0,46.1,29.98,SSW,198,8.0,14.0,37,0.00,,CLR,0.00,VWS V14.01,2013-10-09 22:08:00,
2013-10-09 17:13:00,73.8,47.3,29.98,SE,132,5.0,14.0,39,0.00,,CLR,0.00,VWS V14.01,2013-10-09 22:13:00,
2013-10-09 17:18:00,73.5,47.7,29.98,SSE,160,8.0,16.0,40,0.00,,CLR,0.00,VWS V14.01,2013-10-09 22:18:00,
2013-10-09 17:23:00,73.3,47.5,29.98,SSE,162,9.0,16.0,40,0.00,,CLR,0.00,VWS V14.01,2013-10-09 22:23:00,
2013-10-09 17:28:00,73.2,46.1,29.98,SSE,155,8.0,16.0,38,0.00,,CLR,0.00,VWS V14.01,2013-10-09 22:28:00,
2013-10-09 17:30:00,73.1,46.0,29.98,SE,145,9.0,16.0,38,0.00,,CLR,0.00,VWS V14.01,2013-10-09 22:30:00,
2013-10-09 17:33:00,73.1,46.0,29.98,SSE,155,9.0,13.0,38,0.00,,CLR,0.00,VWS V14.01,2013-10-09 22:33:00,
2013-10-09 17:38:00,72.7,47.0,29.98,SE,139,8.0,13.0,40,0.00,,CLR,0.00,VWS V14.01,2013-10-09 22:38:00,
2013-10-09 17:43:00,72.4,46.7,29.98,SE,134,9.0,13.0,40,0.00,,CLR,0.00,VWS V14.01,2013-10-09 22:43:00,
2013-10-09 17:48:00,72.0,47.7,29.98,SE,134,7.0,13.0,42,0.00,,CLR,0.00,VWS V14.01,2013-10-09 22:48:00,
2013-10-09 17:53:00,71.6,47.9,29.98,SE,145,6.0,13.0,43,0.00,,CLR,0.00,VWS V14.01,2013-10-09 22:53:00,
2013-10-09 17:58:00,71.2,47.6,29.98,SE,126,5.0,13.0,43,0.00,,CLR,0.00,VWS V14.01,2013-10-09 22:58:00,
2013-10-09 18:00:00,71.1,47.5,29.98,ESE,118,6.0,13.0,43,0.00,,CLR,0.00,VWS V14.01,2013-10-09 23:00:00,
2013-10-09 18:03:00,70.8,47.8,29.98,SSE,148,5.0,8.0,44,0.00,,CLR,0.00,VWS V14.01,2013-10-09 23:03:00,
2013-10-09 18:08:00,70.5,47.6,29.98,SE,133,5.0,10.0,44,0.00,,CLR,0.00,VWS V14.01,2013-10-09 23:08:00,
2013-10-09 18:13:00,69.9,47.6,29.98,SE,128,5.0,10.0,45,0.00,,CLR,0.00,VWS V14.01,2013-10-09 23:13:00,
2013-10-09 18:18:00,69.2,47.6,29.98,SE,129,5.0,10.0,46,0.00,,CLR,0.00,VWS V14.01,2013-10-09 23:18:00,
2013-10-09 18:23:00,68.4,47.4,29.98,SE,125,7.0,10.0,47,0.00,,CLR,0.00,VWS V14.01,2013-10-09 23:23:00,
2013-10-09 18:28:00,67.7,47.3,29.98,SE,127,5.0,10.0,48,0.00,,CLR,0.00,VWS V14.01,2013-10-09 23:28:00,
2013-10-09 18:30:00,67.4,47.6,29.98,SE,126,4.0,10.0,49,0.00,,CLR,0.00,VWS V14.01,2013-10-09 23:30:00,
2013-10-09 18:33:00,67.1,47.3,29.98,SE,129,4.0,6.0,49,0.00,,CLR,0.00,VWS V14.01,2013-10-09 23:33:00,
2013-10-09 18:38:00,66.6,47.4,29.98,SE,136,4.0,7.0,50,0.00,,CLR,0.00,VWS V14.01,2013-10-09 23:38:00,
2013-10-09 18:43:00,66.0,47.4,29.98,SE,144,4.0,7.0,51,0.00,,CLR,0.00,VWS V14.01,2013-10-09 23:43:00,
2013-10-09 18:48:00,65.3,47.8,29.98,East,99,6.0,7.0,53,0.00,,CLR,0.00,VWS V14.01,2013-10-09 23:48:00,
2013-10-09 18:53:00,64.6,47.6,29.98,ESE,112,5.0,7.0,54,0.00,,CLR,0.00,VWS V14.01,2013-10-09 23:53:00,
2013-10-09 18:58:00,64.0,47.5,29.98,ESE,114,4.0,7.0,55,0.00,,CLR,0.00,VWS V14.01,2013-10-09 23:58:00,
2013-10-09 19:00:00,63.8,47.3,29.98,ESE,117,6.0,7.0,55,0.00,,CLR,0.00,VWS V14.01,2013-10-10 00:00:00,
2013-10-09 19:03:00,63.6,47.2,29.98,SE,136,4.0,6.0,55,0.00,,CLR,0.00,VWS V14.01,2013-10-10 00:03:00,
2013-10-09 19:08:00,63.1,47.2,29.98,ESE,106,4.0,6.0,56,0.00,,CLR,0.00,VWS V14.01,2013-10-10 00:08:00,
2013-10-09 19:13:00,62.6,47.2,29.98,ESE,116,4.0,6.0,57,0.00,,CLR,0.00,VWS V14.01,2013-10-10 00:13:00,
2013-10-09 19:18:00,62.1,47.2,29.98,ESE,112,3.0,6.0,58,0.00,,CLR,0.00,VWS V14.01,2013-10-10 00:18:00,
2013-10-09 19:23:00,61.6,47.2,29.98,SE,136,4.0,6.0,59,0.00,,CLR,0.00,VWS V14.01,2013-10-10 00:23:00,
2013-10-09 19:28:00,61.2,47.2,29.98,SE,132,4.0,6.0,60,0.00,,CLR,0.00,VWS V14.01,2013-10-10 00:28:00,
2013-10-09 19:30:00,61.0,47.0,29.98,SE,129,4.0,6.0,60,0.00,,CLR,0.00,VWS V14.01,2013-10-10 00:30:00,
2013-10-09 19:33:00,60.9,47.4,29.98,SE,128,4.0,6.0,61,0.00,,CLR,0.00,VWS V14.01,2013-10-10 00:33:00,
2013-10-09 19:38:00,60.5,47.0,29.98,SE,133,3.0,6.0,61,0.00,,CLR,0.00,VWS V14.01,2013-10-10 00:38:00,
2013-10-09 19:43:00,60.1,47.0,29.98,SE,134,2.0,6.0,62,0.00,,CLR,0.00,VWS V14.01,2013-10-10 00:43:00,
2013-10-09 19:48:00,60.1,47.0,29.98,ESE,120,3.0,6.0,62,0.00,,CLR,0.00,VWS V14.01,2013-10-10 00:48:00,
2013-10-09 19:53:00,60.2,46.7,29.99,SE,132,3.0,6.0,61,0.00,,CLR,0.00,VWS V14.01,2013-10-10 00:53:00,
2013-10-09 19:58:00,60.0,47.0,29.99,ESE,121,4.0,6.0,62,0.00,,CLR,0.00,VWS V14.01,2013-10-10 00:58:00,
2013-10-09 20:00:00,59.8,46.8,29.99,ESE,115,4.0,6.0,62,0.00,,CLR,0.00,VWS V14.01,2013-10-10 01:00:00,
2013-10-09 20:03:00,59.6,46.6,29.99,SE,126,4.0,5.0,62,0.00,,CLR,0.00,VWS V14.01,2013-10-10 01:03:00,
2013-10-09 20:08:00,59.1,46.5,29.99,ESE,119,5.0,5.0,63,0.00,,CLR,0.00,VWS V14.01,2013-10-10 01:08:00,
2013-10-09 20:13:00,58.6,46.5,29.99,ESE,110,3.0,5.0,64,0.00,,CLR,0.00,VWS V14.01,2013-10-10 01:13:00,
2013-10-09 20:18:00,58.2,46.5,29.99,SE,130,4.0,5.0,65,0.00,,CLR,0.00,VWS V14.01,2013-10-10 01:18:00,
2013-10-09 20:23:00,58.0,46.3,29.99,ESE,122,4.0,5.0,65,0.00,,CLR,0.00,VWS V14.01,2013-10-10 01:23:00,
2013-10-09 20:28:00,57.8,46.5,29.99,SE,128,5.0,5.0,66,0.00,,CLR,0.00,VWS V14.01,2013-10-10 01:28:00,
2013-10-09 20:30:00,57.6,46.3,30.00,ESE,113,4.0,5.0,66,0.00,,CLR,0.00,VWS V14.01,2013-10-10 01:30:00,
2013-10-09 20:33:00,57.4,46.5,30.00,SE,131,3.0,5.0,67,0.00,,CLR,0.00,VWS V14.01,2013-10-10 01:33:00,
2013-10-09 20:38:00,57.0,46.2,30.00,SE,131,3.0,5.0,67,0.00,,CLR,0.00,VWS V14.01,2013-10-10 01:38:00,
2013-10-09 20:43:00,56.7,46.3,30.00,SE,125,5.0,6.0,68,0.00,,CLR,0.00,VWS V14.01,2013-10-10 01:43:00,
2013-10-09 20:48:00,56.6,46.6,30.00,ESE,120,4.0,6.0,69,0.00,,CLR,0.00,VWS V14.01,2013-10-10 01:48:00,
2013-10-09 20:53:00,56.3,46.7,29.99,ESE,122,4.0,6.0,70,0.00,,CLR,0.00,VWS V14.01,2013-10-10 01:53:00,
2013-10-09 20:58:00,56.2,46.9,30.00,SE,126,3.0,6.0,71,0.00,,CLR,0.00,VWS V14.01,2013-10-10 01:58:00,
2013-10-09 21:00:00,56.1,46.8,30.00,East,96,3.0,6.0,71,0.00,,CLR,0.00,VWS V14.01,2013-10-10 02:00:00,
2013-10-09 21:03:00,56.1,46.8,30.00,ESE,116,3.0,5.0,71,0.00,,CLR,0.00,VWS V14.01,2013-10-10 02:03:00,
2013-10-09 21:08:00,56.4,47.1,30.00,ESE,107,3.0,5.0,71,0.00,,CLR,0.00,VWS V14.01,2013-10-10 02:08:00,
2013-10-09 21:13:00,56.4,47.1,30.00,SSE,148,3.0,5.0,71,0.00,,CLR,0.00,VWS V14.01,2013-10-10 02:13:00,
2013-10-09 21:18:00,56.5,46.8,30.00,SSE,158,3.0,6.0,70,0.00,,CLR,0.00,VWS V14.01,2013-10-10 02:18:00,
2013-10-09 21:23:00,56.6,46.9,30.00,ESE,103,4.0,7.0,70,0.00,,CLR,0.00,VWS V14.01,2013-10-10 02:23:00,
2013-10-09 21:28:00,56.6,46.9,30.00,ESE,111,4.0,7.0,70,0.00,,CLR,0.00,VWS V14.01,2013-10-10 02:28:00,
2013-10-09 21:30:00,56.5,46.8,30.00,SE,128,5.0,7.0,70,0.00,,CLR,0.00,VWS V14.01,2013-10-10 02:30:00,
2013-10-09 21:33:00,56.6,46.9,30.00,ESE,113,5.0,6.0,70,0.00,,CLR,0.00,VWS V14.01,2013-10-10 02:33:00,
2013-10-09 21:38:00,56.5,46.8,30.00,SE,129,7.0,9.0,70,0.00,,CLR,0.00,VWS V14.01,2013-10-10 02:38:00,
2013-10-09 21:43:00,56.4,46.8,30.00,East,93,6.0,9.0,70,0.00,,CLR,0.00,VWS V14.01,2013-10-10 02:43:00,
2013-10-09 21:48:00,56.0,46.7,30.00,ESE,115,5.0,9.0,71,0.00,,CLR,0.00,VWS V14.01,2013-10-10 02:48:00,
2013-10-09 21:53:00,55.6,46.7,30.00,ESE,107,5.0,9.0,72,0.00,,CLR,0.00,VWS V14.01,2013-10-10 02:53:00,
2013-10-09 22:00:00,56.1,46.8,30.00,East,96,3.0,6.0,71,0.00,,,0.00,VWS V14.01,2013-10-10 03:00:00,
2013-10-09 22:30:00,56.5,46.8,30.00,SE,128,5.0,7.0,70,0.00,,,0.00,VWS V14.01,2013-10-10 03:30:00,